Location: *
(34.8620°S, 39.3380°E)
Time: 18:52:36
(UTC+00:00)

Envisat - Visible Passes

Search period start: 19 October 2021 00:00
Search period end: 29 October 2021 00:00
Orbit: 764 x 766 km, 98.2° (Epoch: 18 October)

Date Brightness Start Highest point End Pass type
(mag) Time Alt. Az. Time Alt. Az. Time Alt. Az.
19 Oct 4.5 01:08:36 10° NE 01:13:19 40° ESE 01:18:06 10° S visible
20 Oct 5.9 00:33:27 10° ENE 00:36:48 18° ESE 00:40:10 10° SSE visible
20 Oct 6.7 16:04:45 10° SW 16:06:00 11° WSW 16:07:15 10° WSW visible
21 Oct 3.3 01:33:27 10° NNE 01:38:32 73° ESE 01:43:40 10° S visible
22 Oct 5.0 00:57:26 10° NE 01:01:52 31° ESE 01:06:21 10° S visible
23 Oct 6.1 00:22:53 10° E 00:25:25 14° ESE 00:27:58 10° SE visible
23 Oct 3.0 01:58:48 10° N 02:03:50 62° W 02:08:56 10° SSW visible
24 Oct 3.8 01:22:04 10° NNE 01:27:03 56° ESE 01:32:04 10° S visible
25 Oct 5.4 00:46:23 10° ENE 00:50:26 24° ESE 00:54:33 10° SSE visible
26 Oct 6.4 00:13:01 10° ESE 00:14:03 11° ESE 00:15:06 10° SE visible
26 Oct 3.0 01:47:12 10° N 01:52:19 81° W 01:57:29 10° SSW visible
27 Oct 4.3 01:10:46 10° NE 01:15:34 43° ESE 01:20:25 10° S visible
28 Oct 5.8 00:35:29 10° ENE 00:39:01 19° ESE 00:42:36 10° SSE visible
